ON1TG-13 Weather Reports


time (UTC)temp
F
wind
direction
speed
knots
gust
knots
rain 1hr
in
rain 24hr
in
rain mn
in
humidity
%
barometer
mb
20260507132252 73 19 7.0 13.9 0.00 0.00 0.00 21 1016.0
20260507130744 75 19 6.1 12.2 0.00 0.00 0.00 21 1016.2
20260507125236 73 24 7.0 13.9 0.00 0.00 0.00 21 1016.2
20260507123728 72 25 7.8 14.8 0.00 0.00 0.00 21 1016.1
20260507122220 74 20 6.1 13.0 0.00 0.00 0.00 21 1016.0
20260507120712 73 18 7.8 14.8 0.00 0.00 0.00 21 1016.1
20260507115206 73 21 9.6 16.5 0.00 0.00 0.00 21 1016.0
20260507113728 75 25 7.0 13.9 0.00 0.00 0.00 21 1016.0
20260507112151 75 18 7.0 13.9 0.00 0.00 0.00 21 1015.9
20260507110643 74 12 7.0 12.2 0.00 0.00 0.00 21 1016.1
20260507105145 76 19 5.2 11.3 0.00 0.00 0.00 21 1016.1
20260507103629 76 17 3.5 11.3 0.00 0.00 0.00 21 1016.1
20260507102121 74 13 5.2 12.2 0.00 0.00 0.00 21 1016.2
20260507100614 71 359 7.8 13.9 0.00 0.00 0.00 21 1016.1
20260507095107 73 358 7.0 12.2 0.00 0.00 0.00 21 1016.0
20260507093559 73 356 6.1 12.2 0.00 0.00 0.00 21 1015.8
20260507090544 83 128 1.7 4.3 0.00 0.00 0.00 21 1015.8
20260507085037 76 45 2.6 5.2 0.00 0.00 0.00 21 1015.7
20260507083528 74 39 3.5 7.0 0.00 0.00 0.00 21 1015.6
20260507082021 74 69 2.6 23.5 0.00 0.00 0.00 21 1015.6
20260507080514 70 47 4.3 8.7 0.00 0.00 0.00 21 1015.6
20260507075007 71 62 3.5 7.0 0.00 0.00 0.00 21 1015.5
20260507073459 68 63 4.3 7.0 0.00 0.00 0.00 21 1015.5
20260507071953 66 49 6.1 9.6 0.00 0.00 0.00 21 1015.4
20260507070444 67 52 5.2 9.6 0.00 0.00 0.00 21 1015.3
20260507064937 67 43 7.0 9.6 0.00 0.00 0.00 21 1015.1
20260507063429 64 50 7.0 9.6 0.00 0.00 0.00 21 1015.1
20260507061922 67 46 6.1 9.6 0.00 0.00 0.00 21 1015.1
20260507060414 66 44 7.0 11.3 0.00 0.00 0.00 21 1014.9
20260507054903 65 41 7.0 13.0 0.00 0.00 0.00 21 1014.8
20260507053344 65 43 7.8 12.2 0.00 0.00 0.00 21 1014.6
20260507051827 67 36 5.2 8.7 0.00 0.00 0.00 21 1014.7
20260507050258 64 44 5.2 9.6 0.00 0.00 0.00 21 1014.5
20260507044732 65 40 6.1 10.4 0.00 0.00 0.00 21 1014.3
20260507043207 65 37 7.0 13.0 0.00 0.00 0.00 21 1014.1
20260507041635 64 36 7.8 12.2 0.00 0.00 0.00 21 1014.0
20260507040055 68 28 6.1 10.4 0.00 0.00 0.00 21 1014.0
20260507034502 67 26 7.0 10.4 0.00 0.00 0.00 21 1013.8
20260507032916 69 21 5.2 9.6 0.00 0.00 0.00 21 1013.7
20260507031344 69 17 5.2 9.6 0.00 0.00 0.00 21 1013.6
20260507025818 70 20 3.5 7.8 0.00 0.00 0.00 21 1013.5
20260507022735 70 19 5.2 9.6 0.00 0.00 0.00 21 1013.4
20260507021216 69 16 5.2 9.6 0.00 0.00 0.00 21 1013.4
20260507015704 71 14 6.1 12.2 0.00 0.00 0.00 21 1013.2
20260507014152 69 14 7.8 13.0 0.00 0.00 0.00 21 1013.1
20260507012639 68 10 7.0 18.2 0.00 0.00 0.00 21 1013.1
20260507011131 67 8 8.7 16.5 0.00 0.00 0.00 21 1013.1
20260507005620 69 5 7.0 13.9 0.00 0.00 0.00 21 1013.1
20260507004105 67 13 8.7 16.5 0.00 0.00 0.00 21 1013.0
20260507002554 69 10 8.7 16.5 0.00 0.00 0.00 21 1013.1
20260507001046 67 359 10.4 18.2 0.00 0.00 0.00 21 1013.1
20260506235539 68 10 7.8 17.4 0.00 0.00 0.00 21 1013.2
20260506234025 68 2 8.7 14.8 0.00 0.00 0.00 21 1013.0
20260506232513 67 10 8.7 16.5 0.00 0.00 0.00 21 1012.9
20260506230957 67 12 8.7 17.4 0.00 0.00 0.00 21 1013.0
20260506225442 68 17 7.8 15.6 0.00 0.00 0.00 21 1012.9
20260506223923 68 8 8.7 13.9 0.00 0.00 0.00 21 1012.7
20260506222402 68 359 7.0 13.0 0.00 0.00 0.00 21 1012.9
20260506220845 68 358 7.8 15.6 0.00 0.00 0.00 21 1012.8
20260506215336 69 8 7.0 15.6 0.00 0.00 0.00 21 1012.7
20260506213826 69 12 7.0 15.6 0.00 0.00 0.00 21 1012.6
20260506212319 67 0 8.7 14.8 0.00 0.00 0.00 21 1012.7
20260506210807 68 0 8.7 13.9 0.00 0.00 0.00 21 1012.7
20260506205255 69 350 7.0 16.5 0.00 0.00 0.00 21 1012.6
20260506203745 69 0 7.0 13.0 0.00 0.00 0.00 21 1012.6
20260506202235 68 11 6.1 14.8 0.00 0.00 0.00 21 1012.4
20260506200724 68 17 7.8 14.8 0.00 0.00 0.00 21 1012.4
20260506195216 68 3 8.7 15.6 0.00 0.00 0.00 21 1012.2
20260506193704 68 1 7.8 13.9 0.00 0.00 0.00 21 1012.2
20260506192151 67 3 8.7 14.8 0.00 0.00 0.00 21 1011.9
20260506190639 68 351 7.8 16.5 0.00 0.00 0.00 21 1011.8
20260506185129 67 358 9.6 16.5 0.00 0.00 0.00 21 1011.8
20260506183619 69 7 6.1 17.4 0.00 0.00 0.00 21 1011.6
20260506182112 68 354 9.6 15.6 0.00 0.00 0.00 21 1011.6
20260506180604 71 357 6.1 16.5 0.00 0.00 0.00 21 1011.4
20260506175056 70 347 7.0 17.4 0.00 0.00 0.00 21 1011.3
20260506173549 70 10 8.7 16.5 0.00 0.00 0.00 21 1011.2
20260506172042 70 345 10.4 19.1 0.00 0.00 0.00 21 1011.0
20260506170535 69 355 9.6 17.4 0.00 0.00 0.00 21 1011.0
20260506165027 70 350 11.3 19.1 0.00 0.00 0.00 21 1010.9
20260506163520 70 1 10.4 18.2 0.00 0.00 0.00 21 1010.9
20260506162012 70 0 10.4 17.4 0.00 0.00 0.00 21 1010.8
20260506160505 72 7 9.6 20.0 0.00 0.00 0.00 21 1010.8
20260506154956 74 16 7.0 19.1 0.00 0.00 0.00 21 1010.8
20260506153448 71 353 11.3 20.0 0.00 0.00 0.00 21 1010.8
20260506151941 73 0 8.7 17.4 0.00 0.00 0.00 21 1010.7
20260506150434 71 357 11.3 20.0 0.00 0.00 0.00 21 1010.7
20260506144926 74 359 9.6 19.1 0.00 0.00 0.00 21 1010.7
20260506143419 71 0 11.3 20.9 0.00 0.00 0.00 21 1010.4
20260506141912 73 0 10.4 21.7 0.00 0.00 0.00 21 1010.5
20260506140405 71 1 12.2 19.1 0.00 0.00 0.00 21 1010.6
20260506134857 70 4 12.2 19.1 0.00 0.00 0.00 21 1010.3